User: anonymous   Login
Location: Black Rock Desert
(40.7548°N, 119.2364°W)
Time: 04:04:20
(UTC-07:00)
Language:

Cosmos 1340 Rocket - Orbit

View from above orbital plane
View from above orbital plane
View from above satellite
View from above satellite

Ground track
Ground track

The orbit data is extracted from the following two-line orbital elements,

1 13068U 82013B   16145.14803356  .00000292  00000-0  18050-4 0  9990
2 13068  81.2028 306.4740 0022702 159.0492 201.1667 15.06589767864913
Epoch (UTC): 24 May 2016 03:33:10
Eccentricity: 0.0022702
inclination: 81.2028°
perigee height: 531 km
apogee height: 562 km
right ascension of ascending node: 306.4740°
argument of perigee: 159.0492°
revolutions per day: 15.06589767
mean anomaly at epoch: 201.1667°
orbit number at epoch: 86491

The dashed part of the orbit path shows where the satellite is in the earth's shadow,  

DLR